Flag for Germany Weather past 2 weeks in Stuttgart, Baden-Württemberg, Germany

Now
34 °F

Clear.


Feels Like: 27 °F
Forecast: 31 / 39 °F
Wind: 8 mph from Southwest

Location: Stuttgart-Echterdingen

Current Time: Jan 29, 2015 at 7:48:17 AM

Latest Report: Jan 29, 2015 at 7:20 AM


Visibility: 10 mi

Pressure: 29.53 "Hg

Humidity: 81%

Dew point: 28 °F

Location of StuttgartLocation

Historic Weather in Stuttgart — Graph

°F

Stuttgart temperature yesterday

Maximum temperature yesterday: 39 °F (at 2:20 PM)
Minimum temperature yesterday: 34 °F (at 12:20 AM)
Average temperature yesterday: 36 °F

Past Weeks' High & Low Weather Summary

 TemperatureHumidityPressure
High48 °F (Jan 15, 2:50 PM)100% (Jan 15, 2:20 AM)30.39 "Hg (Jan 15, 2:20 AM)
Low27 °F (Jan 18, 6:20 AM)57% (Jan 15, 7:20 PM)29.53 "Hg (Jan 28, 11:20 PM)
Average35 °F88%29.98 "Hg
* Reported Jan 14 6:20 AM — Jan 29 6:50 AM, Stuttgart, Weather by CustomWeather, © 2014

Note: Actual official high and low records may vary slightly from our data, if they occured in-between our weather recording intervals... More about our weather records

Advertising

Stuttgart weather history for previous 24 hours

 ConditionsComfort  
Time TempWeatherWind HumidityBarometerVisibility
6:50 AM
Jan 29
34 °FPassing clouds.8 mph81%29.53 "HgN/A
6:20 AM34 °FPassing clouds.6 mph81%29.53 "HgN/A
5:50 AM34 °FPassing clouds.7 mph81%29.53 "HgN/A
5:20 AM34 °FPartly cloudy.7 mph87%29.53 "HgN/A
4:50 AM34 °FPartly cloudy.6 mph87%29.53 "HgN/A
4:20 AM34 °FPassing clouds.6 mph93%29.56 "HgN/A
3:50 AM34 °FPassing clouds.8 mph87%29.56 "HgN/A
3:20 AM34 °FLight rain. Partly cloudy.14 mph93%29.56 "HgN/A
2:50 AM34 °FLight rain. Overcast.14 mph93%29.56 "HgN/A
2:20 AM36 °FPartly cloudy.8 mph87%29.56 "HgN/A
1:50 AM36 °FPassing clouds.12 mph87%29.56 "HgN/A
1:20 AM37 °FLight rain. Partly cloudy.13 mph81%29.56 "HgN/A
12:50 AM37 °FLight rain. Partly cloudy.14 mph87%29.56 "HgN/A
12:20 AM37 °FRain. Partly cloudy.13 mph93%29.56 "HgN/A
11:50 PM
Jan 28
39 °FLight rain. Partly cloudy.10 mph87%29.53 "HgN/A
11:20 PM37 °FLight rain. Partly cloudy.8 mph87%29.53 "HgN/A
10:20 PM37 °FLight rain. Partly cloudy.14 mph81%29.56 "HgN/A
9:50 PM39 °FLight rain. Passing clouds.14 mph75%29.56 "HgN/A
9:20 PM39 °FLight rain. Passing clouds.14 mph75%29.59 "HgN/A
8:50 PM39 °FLight rain. Passing clouds.15 mph75%29.59 "HgN/A
8:20 PM39 °FPassing clouds.12 mph70%29.62 "HgN/A
7:50 PM37 °FPassing clouds.15 mph75%29.62 "HgN/A
7:20 PM39 °FPassing clouds.17 mph70%29.65 "HgN/A
6:50 PM37 °FPassing clouds.12 mph75%29.68 "HgN/A
6:20 PM37 °FPartly cloudy.12 mph75%29.71 "HgN/A
5:50 PM37 °FPassing clouds.10 mph75%29.74 "HgN/A
5:20 PM37 °FPassing clouds.13 mph75%29.77 "HgN/A
4:50 PM39 °FPartly sunny.9 mph70%29.80 "HgN/A
4:20 PM39 °FPartly sunny.12 mph70%29.83 "HgN/A
3:50 PM39 °FPartly sunny.10 mph70%29.83 "HgN/A
3:20 PM39 °FPartly sunny.8 mph75%29.86 "HgN/A
2:50 PM39 °FBroken clouds.14 mph75%29.86 "HgN/A
2:20 PM39 °FBroken clouds.14 mph70%29.89 "HgN/A
1:50 PM37 °FBroken clouds.13 mph75%29.92 "HgN/A
1:20 PM37 °FPartly sunny.10 mph75%29.95 "HgN/A
12:50 PM37 °FPartly sunny.10 mph75%29.98 "HgN/A
12:20 PM37 °FPartly sunny.13 mph75%30.01 "HgN/A
11:50 AM36 °FPartly sunny.10 mph81%30.04 "HgN/A
11:20 AM36 °FPartly sunny.8 mph81%30.04 "HgN/A
10:50 AM36 °FPartly sunny.9 mph81%30.04 "HgN/A
10:20 AM36 °FPartly sunny.8 mph81%30.07 "HgN/A
9:50 AM36 °FPartly sunny.7 mph81%30.07 "HgN/A
9:20 AM36 °FPartly sunny.6 mph81%30.07 "HgN/A
8:50 AM34 °FPartly sunny.8 mph87%30.09 "HgN/A
8:20 AM34 °FPartly sunny.8 mph87%30.09 "HgN/A
7:50 AM34 °FPassing clouds.7 mph87%30.09 "HgN/A
7:20 AM34 °FPassing clouds.7 mph87%30.09 "HgN/A
Weather by CustomWeather, © 2014

See weather overviewHow to use our weather pages